Location: Les Jeannots
(43.2262°N, 5.5774°E)
Time: 02:16:26
(UTC+00:00)

Cosmos 2263 Rocket - Pass Details

Date: 05 July 2020
Orbit: 825 x 847 km, 71.0° (Epoch: 04 August)

Event Time Altitude Azimuth Distance (km) Brightness Sun altitude
Rises 20:25:39 0° 324° (NW) 3,371 7.4 -10.1°
Reaches altitude 10° 20:28:26 10° 312° (NW) 2,433 6.2 -10.4°
Maximum altitude 20:32:58 26° 257° (WSW) 1,563 4.0 -11.0°
Drops below altitude 10° 20:37:29 10° 202° (SSW) 2,421 4.3 -11.6°
Sets 20:40:15 0° 190° (S) 3,351 5.0 -11.9°
Enters shadow 20:40:23 - 190° (S) 3,393 5.0 -11.9°
